Orbital Elements at Epoch 2459000.5 (2020-May-31.0) TDB
Reference: JPL 26 (heliocentric ecliptic J2000)
Element | Value | Uncertainty (1-sigma) | Units |
e | .2308609702259655 | 4.7141e-08 | |
a | 2.591778904228485 | 1.6358e-08 | au |
q | 1.993438311787107 | 1.2681e-07 | au |
i | 15.63013335769456 | 4.7969e-06 | deg |
node | 122.0061154890726 | 1.5787e-05 | deg |
peri | 234.5175899851331 | 1.7696e-05 | deg |
M | 217.8448405580442 | 9.5825e-06 | deg |
tp | 2459602.304566431467 (2022-Jan-22.80456643) | 4.3856e-05 | TDB |
period | 1524.036445569811 4.17 | 1.4429e-05 3.95e-08 | d yr |
n | .2362148235014172 | 2.2363e-09 | deg/d |
Q | 3.190119496669863 | 2.0135e-08 | au |
|
| | Orbit Determination Parameters
Additional Information
|